Location: Shenandoah County Park
(38.9356°N, 78.4524°W)
Time: 10:16:37
(UTC-05:00)

Vanguard 2 Rocket - All Passes

Search period start: 02 December 2023 00:00
Search period end: 12 December 2023 00:00
Orbit: 553 x 3312 km, 32.9° (Epoch: 01 December)

Date Brightness Start Highest point End Pass type
(mag) Time Alt. Az. Time Alt. Az. Time Alt. Az.
02 Dec - 13:16:56 10° SSW 13:31:32 36° SE 13:48:35 10° E daylight
02 Dec - 15:29:20 10° WSW 15:48:02 63° SSE 16:06:23 10° E daylight
02 Dec - 17:45:44 10° W 18:06:03 72° S 18:21:36 10° ESE visible
02 Dec - 20:04:28 10° W 20:22:43 55° SSW 20:34:33 10° SE visible
02 Dec - 22:25:27 10° W 22:36:06 23° SW 22:43:42 10° S visible
03 Dec - 12:16:44 10° S 12:28:39 26° SE 12:43:09 10° E daylight
03 Dec - 14:26:56 10° SW 14:43:58 55° SSE 15:02:51 10° E daylight
03 Dec - 16:41:53 10° WSW 17:01:47 72° S 17:19:08 10° E visible
03 Dec - 18:59:42 10° W 19:19:26 64° SSW 19:33:13 10° ESE visible
03 Dec - 21:19:28 10° W 21:34:17 35° SW 21:44:13 10° SSE visible
04 Dec - 11:18:18 10° SSE 11:26:20 16° SE 11:35:48 10° E daylight
04 Dec - 13:25:19 10° SSW 13:40:20 45° SSE 13:58:42 10° E daylight
04 Dec - 15:38:39 10° WSW 15:57:23 69° SSE 16:16:09 10° E daylight
04 Dec - 17:55:20 10° W 18:15:34 70° S 18:31:19 10° ESE visible
04 Dec - 20:14:10 10° W 20:31:50 47° SSW 20:43:46 10° SE visible
04 Dec - 22:37:02 10° W 22:44:43 16° SW 22:50:52 10° SSW visible
05 Dec - 12:24:31 10° SSW 12:37:17 34° SE 12:53:46 10° E daylight
05 Dec - 14:36:04 10° SW 14:53:09 62° SSE 15:12:37 10° E daylight
05 Dec - 16:51:28 10° W 17:11:17 73° S 17:28:52 10° ESE visible
05 Dec - 19:09:20 10° W 19:28:43 57° SSW 19:42:38 10° SE visible
05 Dec - 21:29:49 10° W 21:43:01 27° SW 21:52:32 10° S visible
06 Dec - 11:24:48 10° S 11:34:50 24° SE 11:47:46 10° E daylight
06 Dec - 13:34:10 10° SW 13:49:19 54° SSE 14:08:32 10° E daylight
06 Dec - 15:48:09 10° WSW 16:06:50 72° S 16:25:52 10° E daylight
06 Dec - 18:04:58 10° W 18:24:58 66° SSW 18:40:53 10° ESE visible
06 Dec - 20:24:03 10° W 20:40:44 38° SW 20:52:36 10° SSE visible
07 Dec - 10:27:22 10° SSE 10:32:56 13° SE 10:39:27 10° ESE daylight
07 Dec - 12:32:59 10° SSW 12:46:03 43° SE 13:03:52 10° E daylight
07 Dec - 14:45:27 10° WSW 15:02:27 68° SSE 15:22:19 10° E daylight
07 Dec - 17:01:07 10° W 17:20:46 71° S 17:38:30 10° ESE visible
07 Dec - 19:19:03 10° W 19:37:48 49° SSW 19:51:46 10° SE visible
07 Dec - 21:41:00 10° W 21:51:34 19° SW 21:59:55 10° S visible
08 Dec - 11:32:36 10° SSW 11:43:26 31° SE 11:58:29 10° E daylight
08 Dec - 13:43:22 10° SW 13:58:27 61° SSE 14:18:14 10° E daylight
08 Dec - 15:57:47 10° W 16:16:19 73° S 16:35:31 10° ESE daylight
08 Dec - 18:14:39 10° W 18:34:14 59° SSW 18:50:13 10° SE visible
08 Dec - 20:34:19 10° W 20:49:25 30° SW 21:00:53 10° S visible
09 Dec - 10:33:24 10° S 10:41:27 20° SE 10:52:02 10° E daylight
09 Dec - 12:41:54 10° SW 12:55:00 51° SSE 13:13:39 10° E daylight
09 Dec - 14:55:01 10° WSW 15:11:53 72° S 15:31:57 10° E daylight
09 Dec - 17:10:48 10° W 17:30:10 67° SSW 17:47:59 10° ESE visible
09 Dec - 19:28:56 10° W 19:46:40 41° SW 20:00:31 10° SSE visible
09 Dec - 21:54:25 10° WSW 22:00:03 12° SW 22:05:04 10° SW visible
10 Dec - 09:39:01 10° SE 09:39:55 10° SE 09:40:52 10° ESE daylight
10 Dec - 11:41:07 10° SSW 11:52:11 40° SE 12:08:35 10° E daylight
10 Dec - 13:52:49 10° WSW 14:07:46 67° SSE 14:27:51 10° E daylight
10 Dec - 16:07:29 10° W 16:25:47 71° S 16:45:05 10° ESE daylight
10 Dec - 18:24:24 10° W 18:43:18 51° SSW 18:59:15 10° SE visible
10 Dec - 20:45:17 10° W 20:57:58 22° SW 21:08:19 10° S visible
11 Dec - 10:41:08 10° S 10:50:03 28° SE 11:02:55 10° E daylight
11 Dec - 12:51:10 10° SW 13:04:08 59° SSE 13:23:18 10° E daylight
11 Dec - 15:04:43 10° W 15:21:22 73° S 15:41:32 10° E daylight
11 Dec - 17:20:31 10° W 17:39:24 60° SSW 17:57:13 10° SE visible
11 Dec - 19:39:10 10° W 19:55:23 32° SW 20:08:42 10° SSE visible
